time_stamp(utc),avg(mph),gust(mph),direction(deg),12m_air_temp(f),sonic_u(cm/s),sonic_v(cm/s),sonic_w(cm/s),pressure,2m_air_temp(f),pyranometer(W/m^2)
"2016-11-19 00:03:46+00",5.5,6.5,,52.8,-232,-86,-4,1017.22,48.8,0
"2016-11-19 00:08:46+00",5.0,6.0,,52.5,-218,-102,-8,1017.29,48.6,0
"2016-11-19 00:13:46+00",6.1,6.1,,52.8,-211,-150,-2,1017.27,48.5,0
"2016-11-19 00:18:46+00",6.3,6.3,,53.1,-231,-140,1,1017.35,48.4,0
"2016-11-19 00:23:46+00",6.3,6.3,,52.9,-228,-144,1,1017.36,48.3,0
"2016-11-19 00:28:46+00",6.1,6.1,,52.7,-256,-127,-2,1017.45,48.2,0
"2016-11-19 00:33:46+00",6.6,6.6,,52.4,-259,-74,6,1017.38,48.3,0
"2016-11-19 00:38:46+00",6.9,6.9,,52.3,-287,-53,6,1017.44,48.5,0
"2016-11-19 00:43:46+00",5.5,6.5,,52.4,-231,-33,3,1017.34,48.5,0
"2016-11-19 00:48:46+00",5.6,6.6,,52.4,-228,-49,-8,1017.3,48.3,0
"2016-11-19 00:53:46+00",6.3,6.3,,52.7,-251,-77,-2,1017.28,48.2,0
"2016-11-19 00:58:46+00",6.7,6.7,,52.6,-276,-56,4,1017.28,47.9,0
"2016-11-19 01:03:46+00",6.7,6.7,,52.3,-287,-40,3,1017.21,47.8,0
"2016-11-19 01:08:46+00",7.6,7.6,,52.2,-323,-47,4,1017.23,47.8,0
"2016-11-19 01:13:46+00",8.2,8.2,,52.3,-356,-28,12,1017.32,47.8,0
"2016-11-19 01:18:46+00",8.1,9.1,,52.2,-351,-24,11,1017.29,47.8,0
"2016-11-19 01:23:46+00",7.8,8.8,,52.2,-338,-27,15,1017.22,47.9,0
"2016-11-19 01:28:46+00",7.3,8.3,,52,-314,-15,13,1017.19,47.9,0
"2016-11-19 01:33:46+00",6.7,6.7,,51.6,-294,3,10,1017.19,47.9,0
"2016-11-19 01:38:46+00",6.6,6.6,,51.4,-287,44,8,1017.18,48,0
"2016-11-19 01:43:46+00",7.8,8.8,,51.6,-332,76,8,1017.11,48,0
"2016-11-19 01:48:46+00",7.8,8.8,,52.3,-339,92,15,1017.05,48.1,0
"2016-11-19 01:53:46+00",7.0,8.0,,51.9,-303,57,7,1017.04,48,0
"2016-11-19 01:58:46+00",7.9,8.9,,51.7,-346,27,7,1017.07,47.7,0
"2016-11-19 02:03:46+00",8.3,9.3,,51.8,-369,42,17,1016.99,47.9,0
"2016-11-19 02:08:46+00",8.5,8.5,,51.9,-364,78,11,1017.08,48,0
"2016-11-19 02:13:46+00",9.3,10.3,,52.1,-396,133,17,1017.08,48,0
"2016-11-19 02:18:46+00",8.9,8.9,,51.9,-367,155,20,1017.06,47.9,0
"2016-11-19 02:23:46+00",9.1,10.1,,51.8,-376,158,20,1017.05,47.9,0
"2016-11-19 02:28:46+00",9.8,9.8,,52.1,-406,165,20,1017.11,48,0
"2016-11-19 02:33:46+00",8.9,8.9,,51.9,-367,145,16,1017.08,48.2,0
"2016-11-19 02:38:46+00",7.2,8.2,,51.8,-288,144,20,1017.05,48.5,0
"2016-11-19 02:43:46+00",9.4,9.4,,51.8,-372,188,21,1016.98,48.5,0
"2016-11-19 02:48:46+00",8.1,9.1,,51.7,-326,154,21,1017.02,48.4,0
"2016-11-19 02:53:46+00",7.2,8.2,,51.2,-301,113,15,1016.98,48.4,0
"2016-11-19 02:58:46+00",7.2,7.2,,51.2,-294,102,12,1017,48.5,0
"2016-11-19 03:03:46+00",7.8,8.8,,50.9,-324,115,13,1016.98,48.4,0
"2016-11-19 03:08:46+00",8.3,9.3,,50.9,-344,145,19,1016.9,48.3,0
"2016-11-19 03:13:46+00",8.2,9.2,,50.9,-328,150,21,1016.97,48.2,0
"2016-11-19 03:18:46+00",8.2,8.2,,50.9,-322,166,18,1016.91,48.1,0
"2016-11-19 03:23:46+00",8.0,8.0,,51.2,-323,149,19,1016.85,48.2,0
"2016-11-19 03:28:46+00",7.7,8.7,,51.2,-318,129,18,1016.77,48.5,0
"2016-11-19 03:33:46+00",7.6,7.6,,51,-321,119,18,1016.79,48.6,0
"2016-11-19 03:38:46+00",8.0,8.0,,50.7,-332,125,16,1016.8,48.7,0
"2016-11-19 03:43:46+00",7.9,8.9,,50.7,-331,122,17,1016.87,48.6,0
"2016-11-19 03:48:46+00",7.3,8.3,,50.6,-305,117,15,1016.9,48.6,0
"2016-11-19 03:53:46+00",7.4,8.4,,50.6,-300,133,12,1016.91,48.5,0
"2016-11-19 03:58:46+00",7.5,7.5,,50.8,-302,146,20,1016.91,48.6,0
"2016-11-19 04:03:46+00",7.1,7.1,,50.6,-288,125,20,1016.86,48.7,0
"2016-11-19 04:08:46+00",8.4,10.4,,50.8,-340,148,18,1016.83,48.8,0
"2016-11-19 04:13:46+00",8.6,9.6,,51.2,-346,170,22,1016.78,48.8,0
"2016-11-19 04:18:46+00",9.3,10.3,,51.3,-370,181,18,1016.73,48.6,0
"2016-11-19 04:23:46+00",9.8,9.8,,51.2,-382,217,20,1016.7,48.4,0
"2016-11-19 04:28:46+00",9.6,10.6,,51.3,-374,210,19,1016.64,48.4,0
"2016-11-19 04:33:46+00",9.3,10.3,,51.3,-362,200,16,1016.6,48.6,0
"2016-11-19 04:38:46+00",8.6,9.6,,51.3,-330,187,10,1016.62,48.7,0
"2016-11-19 04:43:46+00",9.1,10.1,,51.4,-350,200,15,1016.53,48.8,0
"2016-11-19 04:48:46+00",7.9,8.9,,51.4,-299,169,13,1016.51,49,0
"2016-11-19 04:53:46+00",7.9,8.9,,51.4,-316,151,14,1016.48,49,0
"2016-11-19 04:58:46+00",8.9,9.9,,51.6,-357,181,16,1016.49,49,0
"2016-11-19 05:03:46+00",9.2,10.2,,51.7,-365,193,23,1016.46,48.9,0
"2016-11-19 05:08:46+00",8.0,8.0,,51.7,-307,180,14,1016.38,49,0
"2016-11-19 05:13:46+00",5.5,6.5,,51.6,-198,129,12,1016.36,49,0
"2016-11-19 05:18:46+00",4.3,4.3,,51.3,-153,103,11,1016.35,48.9,0
"2016-11-19 05:23:46+00",2.3,3.3,,51.1,-21,83,1,1016.36,48.7,0
"2016-11-19 05:28:46+00",5.2,5.2,,51,-161,149,10,1016.27,48.5,0
"2016-11-19 05:33:46+00",6.7,7.7,,51.1,-223,187,16,1016.4,48.3,0
"2016-11-19 05:38:46+00",6.8,6.8,,51.2,-233,190,22,1016.33,48.4,0
"2016-11-19 05:43:46+00",6.5,7.5,,50.8,-193,213,18,1016.27,48.3,0
"2016-11-19 05:48:46+00",7.7,7.7,,50.6,-265,212,24,1016.2,48.1,0
"2016-11-19 05:53:46+00",4.9,4.9,,50.3,-147,143,9,1016.15,48.1,0
"2016-11-19 05:58:46+00",4.7,4.7,,50.1,-158,120,8,1016.16,47.9,0
"2016-11-19 06:03:46+00",4.7,4.7,,50.1,-148,136,7,1016.13,47.7,0
"2016-11-19 06:08:46+00",4.8,4.8,,50.1,-140,144,9,1016.24,47.5,0
"2016-11-19 06:13:46+00",4.8,4.8,,50,-136,154,10,1016.25,47.1,0
"2016-11-19 06:18:46+00",4.2,5.2,,50,-104,136,6,1016.31,46.9,0
"2016-11-19 06:23:46+00",4.7,4.7,,50,-153,128,4,1016.23,46.7,0
"2016-11-19 06:28:46+00",5.3,6.3,,50,-169,158,16,1016.22,46.6,0
"2016-11-19 06:33:46+00",5.2,5.2,,50.1,-133,175,10,1016.24,46.5,0
"2016-11-19 06:38:46+00",4.8,4.8,,50,-113,166,8,1016.28,46.4,0
"2016-11-19 06:43:46+00",4.2,5.2,,49.7,-72,156,8,1016.33,46.2,0
"2016-11-19 06:48:46+00",5.0,6.0,,49.6,-39,204,6,1016.35,46.3,0
"2016-11-19 06:53:46+00",5.6,6.6,,49.7,22,226,5,1016.42,46.2,0
"2016-11-19 06:58:46+00",4.9,5.9,,49.9,129,133,5,1016.51,46.2,0
"2016-11-19 07:03:46+00",6.2,6.2,,50,215,153,12,1016.65,46,0
"2016-11-19 07:08:46+00",6.3,6.3,,50,161,180,1,1016.59,45.9,0
"2016-11-19 07:13:46+00",6.1,6.1,,49.6,92,225,0,1016.66,45.9,0
"2016-11-19 07:18:46+00",5.6,6.6,,49.9,102,207,1,1016.7,45.9,0
"2016-11-19 07:23:46+00",4.2,5.2,,50,11,169,6,1016.7,45.9,0
"2016-11-19 07:28:46+00",5.4,6.4,,49.9,1,222,7,1016.76,45.8,0
"2016-11-19 07:33:46+00",4.5,4.5,,49.8,12,179,5,1016.75,45.6,0
"2016-11-19 07:38:46+00",4.7,4.7,,49.9,57,167,0,1016.72,45.7,0
"2016-11-19 07:43:46+00",5.3,5.3,,49.8,106,193,4,1016.68,45.7,0
"2016-11-19 07:48:46+00",5.6,6.6,,49.7,54,220,1,1016.52,45.8,0
"2016-11-19 07:53:46+00",5.6,6.6,,49.3,45,217,2,1016.43,45.5,0
"2016-11-19 07:58:46+00",4.9,5.9,,49.1,4,198,9,1016.46,45.3,0
"2016-11-19 08:03:46+00",3.6,4.6,,48.4,-22,137,1,1016.51,45.1,0
"2016-11-19 08:08:46+00",3.7,3.7,,48.4,17,144,4,1016.47,45,0
"2016-11-19 08:13:46+00",3.8,3.8,,48.9,76,130,6,1016.39,45,0
"2016-11-19 08:18:46+00",3.1,3.1,,49.3,43,107,1,1016.43,44.9,0
"2016-11-19 08:23:46+00",3.5,3.5,,49.7,26,134,4,1016.31,45,0
"2016-11-19 08:28:46+00",2.9,2.9,,49.9,-11,106,4,1016.22,45.1,0
"2016-11-19 08:33:46+00",1.8,1.8,,50,0,60,3,1016.26,45.4,0
"2016-11-19 08:38:46+00",0.9,1.9,,50.2,18,16,0,1016.28,45.5,0
"2016-11-19 08:43:46+00",0.0,0.0,,50.3,15,9,1,1016.22,45.8,0
"2016-11-19 08:48:46+00",0.0,0.0,,50.4,-2,-9,1,1016.29,45.9,0
"2016-11-19 08:53:46+00",2.5,2.5,,50,-99,23,-5,1016.13,45.8,0
"2016-11-19 08:58:46+00",2.9,2.9,,49.9,-109,45,4,1016.12,45.8,0
"2016-11-19 09:03:46+00",3.0,3.0,,50.3,-105,56,0,1016.01,45.9,0
"2016-11-19 09:08:46+00",3.7,3.7,,50.2,-150,48,11,1015.97,46,0
"2016-11-19 09:13:46+00",3.1,4.1,,50.3,-126,9,5,1015.87,46.1,0
"2016-11-19 09:18:46+00",2.9,2.9,,51,-117,8,-4,1015.84,46,0
"2016-11-19 09:23:46+00",3.9,3.9,,51.5,-161,-7,8,1015.79,45.9,0
"2016-11-19 09:28:46+00",3.0,3.0,,51.6,-123,5,-2,1015.69,45.8,0
"2016-11-19 09:33:46+00",3.4,3.4,,51.6,-132,47,-1,1015.71,45.8,0
"2016-11-19 09:38:46+00",3.8,3.8,,50.9,-155,42,6,1015.74,45.8,0
"2016-11-19 09:43:46+00",4.3,4.3,,50,-162,83,11,1015.71,45.8,0
"2016-11-19 09:48:46+00",4.4,4.4,,49.4,-163,90,9,1015.6,46,0
"2016-11-19 09:53:46+00",4.2,5.2,,49.2,-154,92,9,1015.56,46,0
"2016-11-19 09:58:46+00",4.3,4.3,,49,-173,67,8,1015.53,46.1,0
"2016-11-19 10:03:46+00",5.0,5.0,,48.8,-205,63,3,1015.43,46.3,0
"2016-11-19 10:08:46+00",5.1,6.1,,48.3,-214,55,4,1015.56,46.2,0
"2016-11-19 10:13:46+00",5.0,6.0,,48,-208,57,5,1015.39,46,0
"2016-11-19 10:18:46+00",6.0,6.0,,47.8,-244,107,19,1015.33,45.9,0
"2016-11-19 10:23:46+00",5.3,5.3,,47.8,-206,104,11,1015.28,45.6,0
"2016-11-19 10:28:46+00",5.3,5.3,,47.7,-203,96,9,1015.37,45.5,0
"2016-11-19 10:33:46+00",5.4,5.4,,47.6,-202,116,11,1015.25,45.4,0
"2016-11-19 10:38:46+00",5.2,5.2,,47.5,-187,120,8,1015.3,45.4,0
"2016-11-19 10:43:46+00",4.7,4.7,,47.5,-154,125,8,1015.2,45.3,0
"2016-11-19 10:48:46+00",5.3,5.3,,47.5,-181,137,9,1015.2,45.1,0
"2016-11-19 10:53:46+00",5.6,6.6,,47.5,-209,128,13,1015.19,45.1,0
"2016-11-19 10:58:46+00",5.7,5.7,,47.3,-207,138,13,1015.11,44.9,0
"2016-11-19 11:03:46+00",4.5,4.5,,47.1,-140,126,5,1015.15,44.8,0
"2016-11-19 11:08:46+00",4.8,4.8,,47,-172,118,10,1015.14,44.8,0
"2016-11-19 11:13:46+00",4.4,4.4,,47,-155,103,10,1015.02,44.7,0
"2016-11-19 11:18:46+00",3.1,3.1,,46.8,-75,91,-1,1015.01,44.5,0
"2016-11-19 11:23:46+00",4.0,4.0,,46.6,-140,93,6,1014.95,44.2,0
"2016-11-19 11:28:46+00",4.3,4.3,,46.5,-147,103,8,1014.94,44.1,0
"2016-11-19 11:33:46+00",4.4,4.4,,46.6,-157,104,9,1014.9,44.1,0
"2016-11-19 11:38:46+00",4.4,4.4,,46.7,-147,116,8,1014.89,44.2,0
"2016-11-19 11:43:46+00",5.3,5.3,,46.6,-192,127,7,1014.8,44.1,0
"2016-11-19 11:48:46+00",6.0,7.0,,46.3,-210,157,18,1014.78,44,0
"2016-11-19 11:53:46+00",5.2,5.2,,46.5,-176,140,11,1014.73,44,0
"2016-11-19 11:58:46+00",5.8,5.8,,46.8,-217,134,15,1014.76,44.3,0
"2016-11-19 12:03:46+00",4.1,5.1,,47,-162,62,8,1014.71,44.5,0
"2016-11-19 12:08:46+00",3.5,3.5,,46.9,-131,60,6,1014.52,44.6,0
"2016-11-19 12:13:46+00",3.8,3.8,,47,-138,75,5,1014.43,44.9,0
"2016-11-19 12:18:46+00",2.8,3.8,,47.3,-101,34,5,1014.42,45.2,3
"2016-11-19 12:23:46+00",3.4,3.4,,47.4,-128,49,4,1014.38,45.5,8.6
"2016-11-19 12:28:46+00",3.8,3.8,,47.7,-155,55,-1,1014.42,46.1,15.7
"2016-11-19 12:33:46+00",4.1,5.1,,47.9,-169,49,3,1014.39,46.6,22.6
"2016-11-19 12:38:46+00",3.8,3.8,,48,-153,35,3,1014.26,47.2,30
"2016-11-19 12:43:46+00",1.8,2.8,,48.1,-58,32,2,1014.15,48,36
"2016-11-19 12:48:46+00",1.2,1.2,,48.5,-10,35,6,1014.22,48.9,43.2
"2016-11-19 12:53:46+00",2.3,3.3,,49.1,31,75,-7,1014.17,49.4,53.9
"2016-11-19 12:58:46+00",1.8,2.8,,49.5,-42,52,7,1014.1,50.2,62.4
"2016-11-19 13:03:46+00",2.3,3.3,,49.7,-89,6,12,1013.93,50.9,71.4
"2016-11-19 13:08:46+00",2.7,2.7,,49.8,-105,11,1,1013.9,51.5,77.7
"2016-11-19 13:13:46+00",2.5,2.5,,49.8,-102,15,12,1013.78,52,88
"2016-11-19 13:18:46+00",2.8,2.8,,50,-110,8,-1,1013.71,52.5,100.4
"2016-11-19 13:23:46+00",2.7,2.7,,50.2,-109,3,7,1013.62,52.9,108.1
"2016-11-19 13:28:46+00",3.3,4.3,,50.6,105,75,-4,1013.64,53.4,115.3
"2016-11-19 13:33:46+00",4.6,5.6,,51.2,170,85,10,1013.5,54.1,126.2
"2016-11-19 13:38:46+00",6.9,7.9,,51.7,293,89,17,1013.45,54.5,134.2
"2016-11-19 13:43:46+00",8.0,9.0,,51.1,345,71,-6,1013.4,54,145.1
"2016-11-19 13:48:46+00",8.0,9.0,,51.1,347,30,21,1013.5,53.7,152.5
"2016-11-19 13:53:46+00",7.1,9.1,,51.7,311,2,1,1013.37,53.8,157.6
"2016-11-19 13:58:46+00",7.4,8.4,,53.1,328,-9,0,1013.27,54.4,166.3
"2016-11-19 14:03:46+00",7.3,8.3,,53.7,325,-36,-3,1013.1,54.9,175.6
"2016-11-19 14:08:46+00",8.3,9.3,,54.7,361,-78,1,1013.01,55.5,181
"2016-11-19 14:13:46+00",7.6,8.6,,54.9,332,-68,9,1012.89,55.9,184.8
"2016-11-19 14:18:46+00",7.1,8.1,,55,301,-68,-10,1012.71,56.1,192.2
"2016-11-19 14:23:46+00",8.2,9.2,,55,359,-27,9,1012.76,56.4,194.9
"2016-11-19 14:28:46+00",7.1,8.1,,55.2,308,-45,-4,1012.59,56.5,203.8
"2016-11-19 14:33:46+00",6.5,7.5,,55.4,279,-58,33,1012.6,56.9,200.3
"2016-11-19 14:38:46+00",7.3,8.3,,55.5,315,-89,18,1012.52,57,214.9
"2016-11-19 14:43:46+00",8.3,9.3,,55.6,360,-67,20,1012.33,57,212
"2016-11-19 14:48:46+00",9.5,10.5,,55.6,410,-68,11,1012.2,57,223.5
"2016-11-19 14:53:46+00",10.4,12.4,,55.7,462,-75,5,1011.95,56.9,229.9
"2016-11-19 14:58:46+00",11.0,12.0,,55.9,476,-108,-10,1011.73,57,236.4
"2016-11-19 15:03:46+00",10.6,12.6,,56.4,460,-109,23,1011.69,57.5,237.2
"2016-11-19 15:08:46+00",11.6,12.6,,56.4,489,-190,-1,1011.47,57.7,242.1
"2016-11-19 15:13:46+00",12.0,14.0,,56.4,511,-160,6,1011.37,58,244.7
"2016-11-19 15:18:46+00",10.3,12.3,,56.5,422,-191,-8,1011.39,58.1,248.6
"2016-11-19 15:23:46+00",10.0,11.0,,56.7,397,-202,3,1011.32,58.5,251.2
"2016-11-19 15:28:46+00",11.8,12.8,,56.5,463,-249,-7,1011.37,58.8,252.8
"2016-11-19 15:33:46+00",10.3,11.3,,56.4,399,-214,5,1011.22,58.8,255.5
"2016-11-19 15:38:46+00",10.4,11.4,,56.5,403,-216,2,1011.19,58.9,260.9
"2016-11-19 15:43:46+00",9.6,12.6,,56.8,313,-280,8,1011.11,59.3,260.7
"2016-11-19 15:48:46+00",9.8,10.8,,56.9,344,-246,17,1010.94,59.6,264.7
"2016-11-19 15:53:46+00",9.6,11.6,,57,271,-322,-3,1010.91,59.5,264.3
"2016-11-19 15:58:46+00",9.9,11.9,,57.3,267,-332,-7,1010.68,59.5,258
"2016-11-19 16:03:46+00",11.4,12.4,,57.3,334,-369,-14,1010.57,59.5,269.5
"2016-11-19 16:08:46+00",10.3,12.3,,57.2,263,-356,-8,1010.54,58.9,270.4
"2016-11-19 16:13:46+00",10.0,12.0,,57.2,217,-368,3,1010.57,58.9,270.2
"2016-11-19 16:18:46+00",10.6,11.6,,57.1,232,-396,-6,1010.49,58.8,272
"2016-11-19 16:23:46+00",10.5,11.5,,57.1,224,-393,-13,1010.35,58.8,272.8
"2016-11-19 16:28:46+00",8.4,9.4,,57.1,134,-329,-1,1010.25,58.7,273.4
"2016-11-19 16:33:46+00",9.1,11.1,,57.1,86,-368,-9,1010.17,58.9,274.4
"2016-11-19 16:38:46+00",7.3,9.3,,57,33,-302,-8,1010.11,59.1,273.3
"2016-11-19 16:43:46+00",6.0,8.0,,57.2,4,-247,-7,1010.08,58.9,272.4
"2016-11-19 16:48:46+00",5.9,7.9,,57.4,-14,-245,-8,1010.05,58.8,271.3
"2016-11-19 16:53:46+00",6.8,9.8,,57.6,-5,-278,-21,1009.91,59,268.3
"2016-11-19 16:58:46+00",7.6,9.6,,57.3,13,-316,-12,1009.76,58.9,268.6
"2016-11-19 17:03:46+00",8.6,10.6,,57.1,29,-379,-11,1009.66,59.1,271.2
"2016-11-19 17:08:46+00",10.3,11.3,,57,31,-442,-17,1009.45,59,267.5
"2016-11-19 17:13:46+00",10.1,11.1,,57,23,-432,-12,1009.31,59,268.6
"2016-11-19 17:18:46+00",8.9,10.9,,56.9,4,-367,-21,1009.27,59,266.9
"2016-11-19 17:23:46+00",8.9,10.9,,57.4,-16,-367,-8,1009.19,59.4,267.9
"2016-11-19 17:28:46+00",9.6,11.6,,57.3,47,-409,-5,1009.11,59.2,264.5
"2016-11-19 17:33:46+00",9.5,10.5,,57.2,42,-403,-15,1008.87,59.3,264.2
"2016-11-19 17:38:46+00",8.1,9.1,,57,49,-344,-5,1008.77,59.4,262.3
"2016-11-19 17:43:46+00",6.9,7.9,,56.9,27,-296,-12,1008.69,59.4,259.2
"2016-11-19 17:48:46+00",6.1,7.1,,57,35,-241,-6,1008.52,59.2,256.2
"2016-11-19 17:53:46+00",6.1,7.1,,56.8,66,-246,-10,1008.43,58.7,252.9
"2016-11-19 17:58:46+00",6.2,7.2,,56.7,82,-249,-10,1008.33,58.8,251.5
"2016-11-19 18:03:46+00",5.2,7.2,,57.1,19,-216,4,1008.33,59.3,249.6
"2016-11-19 18:08:46+00",6.5,7.5,,57.3,62,-264,-6,1008.12,59.2,244.4
"2016-11-19 18:13:46+00",7.3,8.3,,57.1,89,-301,-5,1007.95,58.9,240.1
"2016-11-19 18:18:46+00",8.0,9.0,,57.3,73,-324,-11,1007.88,58.8,237.8
"2016-11-19 18:23:46+00",6.4,8.4,,57.5,35,-268,0,1007.94,59.2,235
"2016-11-19 18:28:46+00",6.7,8.7,,57.7,34,-271,16,1007.83,59.4,229.3
"2016-11-19 18:33:46+00",7.7,8.7,,57.7,43,-316,-10,1007.72,59.5,226.2
"2016-11-19 18:38:46+00",6.9,8.9,,57.8,17,-287,-17,1007.77,59.5,220.4
"2016-11-19 18:43:46+00",7.7,9.7,,58.1,17,-332,-19,1007.69,59.5,216.8
"2016-11-19 18:48:46+00",7.4,10.4,,58.2,43,-308,7,1007.51,59.4,213.6
"2016-11-19 18:53:46+00",8.7,9.7,,57.9,169,-324,-5,1007.31,59.2,206.7
"2016-11-19 18:58:46+00",8.3,10.3,,57.7,130,-330,3,1007.19,59,199.7
"2016-11-19 19:03:46+00",7.5,9.5,,58.1,44,-309,-18,1007.3,59.4,194.5
"2016-11-19 19:08:46+00",8.2,9.2,,58.1,84,-333,-14,1007.06,59.2,187.8
"2016-11-19 19:13:46+00",8.0,8.0,,58,126,-322,-10,1006.97,59.2,181
"2016-11-19 19:18:46+00",7.5,8.5,,58.2,38,-311,-17,1007,59.3,175.4
"2016-11-19 19:23:46+00",7.3,10.3,,58.5,23,-306,-9,1006.86,59.5,170.3
"2016-11-19 19:28:46+00",6.7,7.7,,58.4,37,-277,-1,1006.7,59.4,164
"2016-11-19 19:33:46+00",8.3,9.3,,58.2,175,-309,3,1006.44,59.2,155.7
"2016-11-19 19:38:46+00",7.6,8.6,,58.1,118,-303,7,1006.42,59.1,147.6
"2016-11-19 19:43:46+00",8.3,9.3,,58.2,120,-328,0,1006.48,59,139.5
"2016-11-19 19:48:46+00",8.2,9.2,,58.2,144,-323,11,1006.44,58.9,129.7
"2016-11-19 19:53:46+00",8.3,10.3,,58.2,208,-289,1,1006.16,59,124.2
"2016-11-19 19:58:46+00",9.8,10.8,,58.1,267,-326,14,1005.82,58.8,117.1
"2016-11-19 20:03:46+00",9.9,10.9,,58.1,324,-292,-9,1005.77,58.9,105.7
"2016-11-19 20:08:46+00",10.0,11.0,,57.8,300,-310,-14,1005.74,58.8,96
"2016-11-19 20:13:46+00",10.1,12.1,,57.9,307,-308,5,1005.61,58.7,88.8
"2016-11-19 20:18:46+00",9.5,11.5,,57.7,341,-234,15,1005.4,58.6,80.8
"2016-11-19 20:23:46+00",9.6,12.6,,57.5,322,-264,25,1005.36,58.3,70.5
"2016-11-19 20:28:46+00",11.1,12.1,,57.7,351,-327,-4,1005.26,58.2,60.8
"2016-11-19 20:33:46+00",9.8,11.8,,57.5,346,-258,5,1005.26,58.1,51.9
"2016-11-19 20:38:46+00",10.3,12.3,,57.6,224,-390,-2,1005.54,57.8,42.1
"2016-11-19 20:43:46+00",8.2,9.2,,57.6,163,-311,3,1005.47,57.6,32.1
"2016-11-19 20:48:46+00",7.0,8.0,,57.5,173,-242,-10,1005.42,57.5,23.4
"2016-11-19 20:53:46+00",5.6,6.6,,57.3,92,-213,-5,1005.59,57.2,13.4
"2016-11-19 20:58:46+00",5.0,6.0,,57.2,32,-201,-4,1005.66,57,0.1
"2016-11-19 21:03:46+00",4.1,6.1,,57.1,-10,-166,-1,1005.66,56.8,0
"2016-11-19 21:08:46+00",5.5,6.5,,57,10,-231,-8,1005.62,56.6,0
"2016-11-19 21:13:46+00",5.9,7.9,,56.7,44,-246,-8,1005.52,56.2,0
"2016-11-19 21:18:46+00",5.6,6.6,,56.4,78,-229,-3,1005.44,55.8,0
"2016-11-19 21:23:46+00",6.0,7.0,,56.2,116,-227,-4,1005.29,55.4,0
"2016-11-19 21:28:46+00",5.5,6.5,,56,113,-201,-5,1005.28,55.1,0
"2016-11-19 21:33:46+00",6.9,7.9,,56,204,-210,-5,1005.03,54.7,0
"2016-11-19 21:38:46+00",7.7,8.7,,55.9,224,-249,-6,1004.93,54.4,0
"2016-11-19 21:43:46+00",7.1,8.1,,55.8,166,-251,-2,1004.89,54.4,0
"2016-11-19 21:48:46+00",8.2,9.2,,55.6,209,-276,-4,1004.68,54.2,0
"2016-11-19 21:53:46+00",7.9,8.9,,55.5,163,-301,-1,1004.64,54.1,0
"2016-11-19 21:58:46+00",7.8,9.8,,55.5,140,-305,-4,1004.55,54.2,0
"2016-11-19 22:03:46+00",8.4,9.4,,55.6,186,-317,-6,1004.4,54.2,0
"2016-11-19 22:08:46+00",9.2,11.2,,55.6,219,-338,-6,1004.25,54.3,0
"2016-11-19 22:13:46+00",11.0,12.0,,55.8,275,-387,-9,1004.08,54.4,0
"2016-11-19 22:18:46+00",10.4,11.4,,56,230,-383,-5,1004.04,54.8,0
"2016-11-19 22:23:46+00",10.9,12.9,,56.1,280,-376,-6,1003.9,55,0
"2016-11-19 22:28:46+00",11.0,13.0,,56.1,273,-388,5,1003.75,55,0
"2016-11-19 22:33:46+00",10.8,12.8,,56.1,164,-442,-3,1003.92,55.1,0
"2016-11-19 22:38:46+00",11.1,13.1,,56.2,204,-443,-8,1003.87,55.3,0
"2016-11-19 22:43:46+00",11.5,12.5,,56.2,203,-449,-7,1003.76,55.3,0
"2016-11-19 22:48:46+00",11.1,12.1,,56.2,196,-428,-4,1003.72,55.3,0
"2016-11-19 22:53:46+00",11.9,13.9,,56.3,191,-476,-13,1003.72,55.3,0
"2016-11-19 22:58:46+00",11.4,13.4,,56.3,193,-453,4,1003.63,55.4,0
"2016-11-19 23:03:46+00",12.1,14.1,,56.4,219,-473,-13,1003.51,55.4,0
"2016-11-19 23:08:46+00",10.8,11.8,,56.4,164,-436,-15,1003.58,55.5,0
"2016-11-19 23:13:46+00",9.9,10.9,,56.4,113,-411,-9,1003.59,55.4,0
"2016-11-19 23:18:46+00",9.9,11.9,,56.3,82,-412,-11,1003.52,55.3,0
"2016-11-19 23:23:46+00",9.2,11.2,,56.3,76,-390,-9,1003.38,55.3,0
"2016-11-19 23:28:46+00",9.6,11.6,,56.3,70,-401,-10,1003.41,55.2,0
"2016-11-19 23:33:46+00",8.9,10.9,,56.3,72,-369,-10,1003.35,55.2,0
"2016-11-19 23:38:46+00",8.5,10.5,,56.4,86,-345,-5,1003.32,55.3,0
"2016-11-19 23:43:46+00",9.1,10.1,,56.5,120,-366,-5,1003.14,55.3,0
"2016-11-19 23:48:46+00",11.4,13.4,,56.6,123,-476,-12,1003,55.4,0
"2016-11-19 23:53:46+00",9.5,12.5,,56.7,18,-399,-12,1003.07,55.5,0
"2016-11-19 23:58:46+00",10.2,11.2,,56.7,-103,-425,-10,1003.31,55.6,0
